| time (UTC) | temp F | wind direction | speed MPH | gust MPH | rain 1hr in | rain 24hr in | rain mn in | humidity % | barometer mb |
| 20260506194944 | 72 | 42 | 3.0 | 4.0 | 0.00 | 0.00 | 0.00 | 72 | 1012.3 |
| 20260506194442 | 73 | 31 | 0.0 | 3.0 | 0.00 | 0.00 | 0.00 | 71 | 1012.2 |
| 20260506193938 | 72 | 99 | 2.0 | 5.0 | 0.00 | 0.00 | 0.00 | 71 | 1012.3 |
| 20260506193436 | 75 | 189 | 2.0 | 4.0 | 0.00 | 0.00 | 0.00 | 69 | 1012.2 |
| 20260506192932 | 76 | 94 | 0.0 | 3.0 | 0.00 | 0.00 | 0.00 | 69 | 1012.0 |
| 20260506192429 | 77 | 186 | 2.0 | 4.0 | 0.00 | 0.00 | 0.00 | 68 | 1012.0 |
| 20260506191926 | 78 | 47 | 2.0 | 3.0 | 0.00 | 0.00 | 0.00 | 68 | 1012.0 |
| 20260506191422 | 78 | 56 | 0.0 | 2.0 | 0.00 | 0.00 | 0.00 | 69 | 1012.1 |
| 20260506190919 | 77 | 66 | 1.0 | 3.0 | 0.00 | 0.00 | 0.00 | 70 | 1012.3 |
| 20260506190416 | 79 | 118 | 1.0 | 2.0 | 0.00 | 0.00 | 0.00 | 66 | 1012.4 |
| 20260506185913 | 78 | 79 | 0.0 | 4.0 | 0.00 | 0.00 | 0.00 | 68 | 1012.2 |
| 20260506185410 | 80 | 65 | 2.0 | 3.0 | 0.00 | 0.00 | 0.00 | 64 | 1012.4 |
| 20260506184907 | 80 | 161 | 1.0 | 3.0 | 0.00 | 0.00 | 0.00 | 65 | 1012.3 |
| 20260506184404 | 80 | 172 | 0.0 | 2.0 | 0.00 | 0.00 | 0.00 | 64 | 1012.1 |
| 20260506183901 | 81 | 55 | 0.0 | 2.0 | 0.00 | 0.00 | 0.00 | 64 | 1012.1 |
| 20260506183356 | 79 | 150 | 2.0 | 3.0 | 0.00 | 0.00 | 0.00 | 66 | 1012.2 |
| 20260506182854 | 80 | 109 | 2.0 | 2.0 | 0.00 | 0.00 | 0.00 | 65 | 1012.2 |
| 20260506182351 | 78 | 171 | 2.0 | 4.0 | 0.00 | 0.00 | 0.00 | 66 | 1012.1 |
| 20260506181848 | 81 | 94 | 1.0 | 2.0 | 0.00 | 0.00 | 0.00 | 62 | 1012.2 |
| 20260506181346 | 82 | 96 | 2.0 | 2.0 | 0.00 | 0.00 | 0.00 | 60 | 1012.1 |
| 20260506180843 | 82 | 160 | 0.0 | 2.0 | 0.00 | 0.00 | 0.00 | 61 | 1012.0 |
| 20260506180339 | 80 | 72 | 1.0 | 3.0 | 0.00 | 0.00 | 0.00 | 62 | 1012.0 |
| 20260506175835 | 81 | 78 | 1.0 | 2.0 | 0.00 | 0.00 | 0.00 | 61 | 1012.0 |
| 20260506175332 | 80 | 116 | 1.0 | 2.0 | 0.00 | 0.00 | 0.00 | 63 | 1012.1 |
| 20260506174829 | 79 | 73 | 0.0 | 2.0 | 0.00 | 0.00 | 0.00 | 65 | 1011.8 |
| 20260506174327 | 78 | 128 | 2.0 | 3.0 | 0.00 | 0.00 | 0.00 | 65 | 1012.0 |
| 20260506173824 | 77 | 246 | 1.0 | 2.0 | 0.00 | 0.00 | 0.00 | 65 | 1012.1 |
| 20260506173321 | 77 | 83 | 1.0 | 2.0 | 0.00 | 0.00 | 0.00 | 67 | 1012.1 |
| 20260506172818 | 76 | 31 | 1.0 | 2.0 | 0.00 | 0.00 | 0.00 | 68 | 1012.2 |
| 20260506172314 | 75 | 229 | 1.0 | 2.0 | 0.00 | 0.00 | 0.00 | 67 | 1012.3 |
| 20260506171812 | 75 | 81 | 1.0 | 2.0 | 0.00 | 0.00 | 0.00 | 68 | 1012.3 |
| 20260506171309 | 73 | 297 | 2.0 | 4.0 | 0.00 | 0.00 | 0.00 | 71 | 1012.3 |
| 20260506170807 | 73 | 208 | 2.0 | 4.0 | 0.00 | 0.00 | 0.00 | 72 | 1012.1 |
| 20260506170302 | 73 | 86 | 1.0 | 3.0 | 0.00 | 0.00 | 0.00 | 73 | 1012.0 |
| 20260506165802 | 71 | 43 | 2.0 | 2.0 | 0.00 | 0.00 | 0.00 | 76 | 1012.2 |
| 20260506165259 | 69 | 38 | 2.0 | 2.0 | 0.00 | 0.00 | 0.00 | 78 | 1012.3 |
| 20260506164755 | 68 | 15 | 1.0 | 4.0 | 0.00 | 0.00 | 0.00 | 81 | 1012.7 |
| 20260506164252 | 67 | 62 | 2.0 | 3.0 | 0.00 | 0.00 | 0.00 | 83 | 1012.8 |
| 20260506163749 | 66 | 53 | 2.0 | 3.0 | 0.00 | 0.00 | 0.00 | 85 | 1013.0 |
| 20260506163244 | 66 | 15 | 3.0 | 3.0 | 0.00 | 0.00 | 0.00 | 86 | 1013.0 |
| 20260506162740 | 65 | 359 | 2.0 | 3.0 | 0.00 | 0.00 | 0.00 | 86 | 1013.0 |
| 20260506162238 | 65 | 40 | 3.0 | 3.0 | 0.00 | 0.00 | 0.00 | 86 | 1013.6 |
| 20260506161735 | 66 | 345 | 1.0 | 6.0 | 0.00 | 0.00 | 0.00 | 85 | 1013.9 |
| 20260506161232 | 66 | 179 | 8.0 | 9.0 | 0.00 | 0.00 | 0.00 | 85 | 1013.9 |
| 20260506160730 | 67 | 94 | 3.0 | 5.0 | 0.00 | 0.00 | 0.00 | 85 | 1013.6 |
| 20260506160226 | 67 | 8 | 1.0 | 5.0 | 0.00 | 0.00 | 0.00 | 87 | 1013.5 |
| 20260506155725 | 67 | 65 | 2.0 | 4.0 | 0.00 | 0.00 | 0.00 | 88 | 1013.3 |
| 20260506155221 | 67 | 352 | 2.0 | 4.0 | 0.00 | 0.00 | 0.00 | 88 | 1013.5 |
| 20260506153323 | 70 | 54 | 1.0 | 4.0 | 0.00 | 0.00 | 0.00 | 83 | 1012.8 |
| 20260506152820 | 71 | 66 | 1.0 | 3.0 | 0.00 | 0.00 | 0.00 | 83 | 1012.8 |
| 20260506152317 | 74 | 339 | 4.0 | 5.0 | 0.00 | 0.00 | 0.00 | 78 | 1012.7 |
| 20260506151816 | 79 | 69 | 1.0 | 2.0 | 0.00 | 0.00 | 0.00 | 84 | 1011.8 |
| 20260506151312 | 79 | 134 | 0.0 | 2.0 | 0.00 | 0.00 | 0.00 | 84 | 1011.9 |
| 20260506150809 | 79 | 89 | 0.0 | 3.0 | 0.00 | 0.00 | 0.00 | 84 | 1011.8 |
| 20260506150306 | 79 | 76 | 1.0 | 2.0 | 0.00 | 0.00 | 0.00 | 84 | 1011.8 |
| 20260506145803 | 79 | 87 | 1.0 | 2.0 | 0.00 | 0.00 | 0.00 | 84 | 1011.6 |
| 20260506145259 | 79 | 101 | 1.0 | 3.0 | 0.00 | 0.00 | 0.00 | 84 | 1011.3 |
| 20260506144757 | 79 | 98 | 0.0 | 2.0 | 0.00 | 0.00 | 0.00 | 84 | 1011.1 |
| 20260506144254 | 79 | 84 | 1.0 | 2.0 | 0.00 | 0.00 | 0.00 | 84 | 1011.0 |
| 20260506143751 | 79 | 66 | 2.0 | 2.0 | 0.00 | 0.00 | 0.00 | 84 | 1011.0 |
| 20260506143248 | 78 | 89 | 0.0 | 2.0 | 0.00 | 0.00 | 0.00 | 84 | 1010.8 |
| 20260506142747 | 78 | 88 | 1.0 | 2.0 | 0.00 | 0.00 | 0.00 | 85 | 1010.9 |
| 20260506142245 | 78 | 115 | 0.0 | 2.0 | 0.00 | 0.00 | 0.00 | 85 | 1010.7 |
| 20260506141743 | 78 | 58 | 1.0 | 3.0 | 0.00 | 0.00 | 0.00 | 86 | 1010.4 |
| 20260506141241 | 77 | 131 | 0.0 | 2.0 | 0.00 | 0.00 | 0.00 | 86 | 1010.6 |
| 20260506140738 | 77 | 112 | 1.0 | 2.0 | 0.00 | 0.00 | 0.00 | 87 | 1010.9 |
| 20260506140235 | 77 | 84 | 1.0 | 2.0 | 0.00 | 0.00 | 0.00 | 87 | 1011.0 |
| 20260506135731 | 77 | 91 | 1.0 | 2.0 | 0.00 | 0.00 | 0.00 | 87 | 1011.1 |
| 20260506135228 | 77 | 53 | 2.0 | 2.0 | 0.00 | 0.00 | 0.00 | 87 | 1010.8 |
| 20260506134725 | 77 | 92 | 0.0 | 2.0 | 0.00 | 0.00 | 0.00 | 88 | 1010.4 |
| 20260506134221 | 77 | 78 | 1.0 | 2.0 | 0.00 | 0.00 | 0.00 | 89 | 1010.4 |
| 20260506133718 | 77 | 76 | 1.0 | 2.0 | 0.00 | 0.00 | 0.00 | 89 | 1010.5 |
| 20260506133215 | 76 | 109 | 2.0 | 2.0 | 0.00 | 0.00 | 0.00 | 89 | 1010.4 |
| 20260506132712 | 76 | 141 | 1.0 | 2.0 | 0.00 | 0.00 | 0.00 | 89 | 1010.2 |
| 20260506132209 | 76 | 55 | 1.0 | 1.0 | 0.00 | 0.00 | 0.00 | 89 | 1010.1 |
| 20260506131707 | 76 | 75 | 1.0 | 2.0 | 0.00 | 0.00 | 0.00 | 89 | 1010.0 |
| 20260506131202 | 76 | 162 | 1.0 | 2.0 | 0.00 | 0.00 | 0.00 | 89 | 1010.1 |
| 20260506130700 | 76 | 142 | 1.0 | 2.0 | 0.00 | 0.00 | 0.00 | 89 | 1010.1 |
| 20260506130157 | 76 | 63 | 1.0 | 2.0 | 0.00 | 0.00 | 0.00 | 90 | 1010.2 |
| 20260506125655 | 76 | 78 | 1.0 | 2.0 | 0.00 | 0.00 | 0.00 | 90 | 1010.0 |
| 20260506125152 | 76 | 157 | 1.0 | 2.0 | 0.00 | 0.00 | 0.00 | 90 | 1009.9 |
| 20260506124650 | 75 | 83 | 0.0 | 2.0 | 0.00 | 0.00 | 0.00 | 90 | 1009.9 |
| 20260506124148 | 75 | 89 | 0.0 | 2.0 | 0.00 | 0.00 | 0.00 | 91 | 1009.9 |
| 20260506123645 | 75 | 82 | 2.0 | 2.0 | 0.00 | 0.00 | 0.00 | 91 | 1009.8 |
| 20260506123144 | 75 | 101 | 2.0 | 2.0 | 0.00 | 0.00 | 0.00 | 91 | 1009.9 |
| 20260506122640 | 75 | 89 | 2.0 | 2.0 | 0.00 | 0.00 | 0.00 | 91 | 1009.8 |
| 20260506122138 | 75 | 99 | 2.0 | 2.0 | 0.00 | 0.00 | 0.00 | 91 | 1009.8 |
| 20260506121635 | 75 | 85 | 1.0 | 2.0 | 0.00 | 0.00 | 0.00 | 92 | 1009.9 |
| 20260506121131 | 75 | 72 | 1.0 | 2.0 | 0.00 | 0.00 | 0.00 | 91 | 1009.8 |
| 20260506120629 | 75 | 83 | 2.0 | 2.0 | 0.00 | 0.00 | 0.00 | 91 | 1009.8 |
| 20260506120126 | 75 | 102 | 2.0 | 2.0 | 0.00 | 0.00 | 0.00 | 91 | 1009.8 |
| 20260506115625 | 75 | 93 | 2.0 | 2.0 | 0.00 | 0.00 | 0.00 | 91 | 1009.7 |
| 20260506115123 | 75 | 79 | 2.0 | 2.0 | 0.00 | 0.00 | 0.00 | 91 | 1009.6 |
| 20260506114620 | 75 | 171 | 1.0 | 2.0 | 0.00 | 0.00 | 0.00 | 91 | 1009.5 |
| 20260506114118 | 75 | 89 | 0.0 | 2.0 | 0.00 | 0.00 | 0.00 | 91 | 1009.6 |
| 20260506113616 | 75 | 120 | 1.0 | 2.0 | 0.00 | 0.00 | 0.00 | 91 | 1009.7 |
| 20260506113113 | 75 | 74 | 2.0 | 2.0 | 0.00 | 0.00 | 0.00 | 90 | 1009.8 |
| 20260506112609 | 75 | 88 | 2.0 | 2.0 | 0.00 | 0.00 | 0.00 | 90 | 1009.9 |
| 20260506112107 | 75 | 97 | 1.0 | 2.0 | 0.00 | 0.00 | 0.00 | 90 | 1009.8 |
| 20260506111604 | 75 | 84 | 1.0 | 2.0 | 0.00 | 0.00 | 0.00 | 90 | 1009.8 |
| 20260506111102 | 75 | 93 | 1.0 | 2.0 | 0.00 | 0.00 | 0.00 | 90 | 1009.7 |
| 20260506110559 | 75 | 95 | 2.0 | 2.0 | 0.00 | 0.00 | 0.00 | 90 | 1009.6 |
| 20260506110056 | 75 | 73 | 2.0 | 2.0 | 0.00 | 0.00 | 0.00 | 90 | 1009.8 |
| 20260506105552 | 75 | 61 | 3.0 | 3.0 | 0.00 | 0.00 | 0.00 | 90 | 1009.7 |
| 20260506105050 | 75 | 82 | 1.0 | 2.0 | 0.00 | 0.00 | 0.00 | 90 | 1009.6 |
| 20260506104548 | 75 | 85 | 1.0 | 2.0 | 0.00 | 0.00 | 0.00 | 90 | 1009.4 |
| 20260506104045 | 75 | 86 | 1.0 | 2.0 | 0.00 | 0.00 | 0.00 | 90 | 1009.5 |
| 20260506103542 | 75 | 93 | 0.0 | 2.0 | 0.00 | 0.00 | 0.00 | 90 | 1009.4 |
| 20260506103039 | 75 | 69 | 2.0 | 2.0 | 0.00 | 0.00 | 0.00 | 90 | 1009.5 |
| 20260506102537 | 75 | 95 | 0.0 | 2.0 | 0.00 | 0.00 | 0.00 | 90 | 1009.4 |
| 20260506102034 | 75 | 86 | 1.0 | 2.0 | 0.00 | 0.00 | 0.00 | 90 | 1009.4 |
| 20260506101531 | 75 | 71 | 1.0 | 2.0 | 0.00 | 0.00 | 0.00 | 90 | 1009.2 |
| 20260506101028 | 75 | 86 | 1.0 | 3.0 | 0.00 | 0.00 | 0.00 | 90 | 1009.2 |
| 20260506100526 | 75 | 89 | 1.0 | 2.0 | 0.00 | 0.00 | 0.00 | 90 | 1009.2 |
| 20260506100024 | 75 | 91 | 1.0 | 2.0 | 0.00 | 0.00 | 0.00 | 90 | 1009.2 |
| 20260506095523 | 76 | 110 | 1.0 | 2.0 | 0.00 | 0.00 | 0.00 | 90 | 1009.1 |
| 20260506095018 | 75 | 147 | 0.0 | 2.0 | 0.00 | 0.00 | 0.00 | 90 | 1009.1 |
| 20260506094516 | 75 | 88 | 2.0 | 2.0 | 0.00 | 0.00 | 0.00 | 90 | 1008.9 |
| 20260506094014 | 76 | 74 | 1.0 | 2.0 | 0.00 | 0.00 | 0.00 | 90 | 1008.7 |
| 20260506093512 | 76 | 58 | 3.0 | 3.0 | 0.00 | 0.00 | 0.00 | 90 | 1008.8 |
| 20260506093009 | 76 | 88 | 2.0 | 3.0 | 0.00 | 0.00 | 0.00 | 90 | 1008.8 |
| 20260506092507 | 76 | 92 | 1.0 | 2.0 | 0.00 | 0.00 | 0.00 | 90 | 1008.6 |
| 20260506092003 | 76 | 89 | 1.0 | 2.0 | 0.00 | 0.00 | 0.00 | 90 | 1008.8 |
| 20260506091502 | 76 | 93 | 2.0 | 3.0 | 0.00 | 0.00 | 0.00 | 90 | 1008.8 |
| 20260506090958 | 76 | 51 | 2.0 | 3.0 | 0.00 | 0.00 | 0.00 | 90 | 1008.3 |
| 20260506090457 | 76 | 73 | 2.0 | 2.0 | 0.00 | 0.00 | 0.00 | 90 | 1008.3 |
| 20260506085952 | 76 | 77 | 1.0 | 3.0 | 0.00 | 0.00 | 0.00 | 90 | 1008.3 |
| 20260506085450 | 76 | 56 | 2.0 | 2.0 | 0.00 | 0.00 | 0.00 | 90 | 1008.5 |
| 20260506084946 | 76 | 132 | 1.0 | 2.0 | 0.00 | 0.00 | 0.00 | 89 | 1008.3 |
| 20260506084443 | 76 | 113 | 0.0 | 2.0 | 0.00 | 0.00 | 0.00 | 89 | 1008.5 |
| 20260506083939 | 76 | 83 | 0.0 | 2.0 | 0.00 | 0.00 | 0.00 | 89 | 1008.5 |
| 20260506083437 | 76 | 86 | 0.0 | 2.0 | 0.00 | 0.00 | 0.00 | 89 | 1008.5 |
| 20260506082933 | 76 | 134 | 1.0 | 4.0 | 0.00 | 0.00 | 0.00 | 89 | 1008.4 |
| 20260506082431 | 76 | 81 | 1.0 | 2.0 | 0.00 | 0.00 | 0.00 | 89 | 1008.4 |
| 20260506081926 | 76 | 62 | 1.0 | 2.0 | 0.00 | 0.00 | 0.00 | 89 | 1008.5 |
| 20260506081425 | 76 | 149 | 2.0 | 2.0 | 0.00 | 0.00 | 0.00 | 89 | 1008.5 |
| 20260506080921 | 76 | 114 | 0.0 | 3.0 | 0.00 | 0.00 | 0.00 | 89 | 1008.5 |
| 20260506080418 | 76 | 131 | 2.0 | 3.0 | 0.00 | 0.00 | 0.00 | 89 | 1008.4 |
| 20260506073403 | 76 | 54 | 1.0 | 2.0 | 0.00 | 0.00 | 0.00 | 89 | 1008.8 |
| 20260506072859 | 76 | 73 | 2.0 | 3.0 | 0.00 | 0.00 | 0.00 | 89 | 1008.8 |
| 20260506072357 | 76 | 87 | 1.0 | 3.0 | 0.00 | 0.00 | 0.00 | 89 | 1008.7 |
| 20260506071854 | 76 | 106 | 1.0 | 3.0 | 0.00 | 0.00 | 0.00 | 88 | 1008.9 |
| 20260506071352 | 76 | 69 | 2.0 | 2.0 | 0.00 | 0.00 | 0.00 | 88 | 1009.1 |
| 20260506070849 | 76 | 190 | 1.0 | 3.0 | 0.00 | 0.00 | 0.00 | 88 | 1008.9 |
| 20260506070346 | 76 | 87 | 2.0 | 3.0 | 0.00 | 0.00 | 0.00 | 88 | 1008.9 |
| 20260506062323 | 76 | 187 | 1.0 | 3.0 | 0.00 | 0.00 | 0.00 | 88 | 1009.0 |
| 20260506061819 | 76 | 67 | 2.0 | 3.0 | 0.00 | 0.00 | 0.00 | 88 | 1009.1 |
| 20260506061316 | 76 | 68 | 1.0 | 3.0 | 0.00 | 0.00 | 0.00 | 89 | 1008.9 |
| 20260506060814 | 76 | 104 | 1.0 | 2.0 | 0.00 | 0.00 | 0.00 | 88 | 1008.9 |
| 20260506060312 | 76 | 112 | 2.0 | 4.0 | 0.00 | 0.00 | 0.00 | 89 | 1009.0 |
| 20260506051243 | 76 | 80 | 1.0 | 3.0 | 0.00 | 0.00 | 0.00 | 88 | 1009.0 |
| 20260506050741 | 76 | 78 | 1.0 | 3.0 | 0.00 | 0.00 | 0.00 | 88 | 1008.9 |
| 20260506050238 | 77 | 88 | 2.0 | 2.0 | 0.00 | 0.00 | 0.00 | 88 | 1009.1 |
| 20260506044729 | 77 | 103 | 0.0 | 3.0 | 0.00 | 0.00 | 0.00 | 88 | 1009.0 |
| 20260506044226 | 77 | 77 | 2.0 | 2.0 | 0.00 | 0.00 | 0.00 | 88 | 1008.9 |
| 20260506043724 | 77 | 99 | 2.0 | 3.0 | 0.00 | 0.00 | 0.00 | 88 | 1009.2 |
| 20260506043221 | 77 | 103 | 0.0 | 2.0 | 0.00 | 0.00 | 0.00 | 88 | 1009.1 |
| 20260506042720 | 77 | 134 | 0.0 | 2.0 | 0.00 | 0.00 | 0.00 | 88 | 1008.9 |
| 20260506042218 | 77 | 126 | 2.0 | 2.0 | 0.00 | 0.00 | 0.00 | 88 | 1008.9 |
| 20260506041716 | 77 | 101 | 1.0 | 2.0 | 0.00 | 0.00 | 0.00 | 88 | 1009.1 |
| 20260506041213 | 77 | 98 | 2.0 | 2.0 | 0.00 | 0.00 | 0.00 | 87 | 1008.7 |
| 20260506040710 | 77 | 218 | 0.0 | 3.0 | 0.00 | 0.00 | 0.00 | 87 | 1008.9 |
| 20260506040207 | 77 | 141 | 0.0 | 2.0 | 0.00 | 0.00 | 0.00 | 87 | 1008.7 |
| 20260506035703 | 77 | 88 | 2.0 | 2.0 | 0.00 | 0.00 | 0.00 | 87 | 1008.7 |
| 20260506035201 | 77 | 69 | 2.0 | 2.0 | 0.00 | 0.00 | 0.00 | 86 | 1008.6 |
| 20260506034657 | 77 | 105 | 1.0 | 2.0 | 0.00 | 0.00 | 0.00 | 86 | 1008.5 |
| 20260506034155 | 77 | 96 | 2.0 | 3.0 | 0.00 | 0.00 | 0.00 | 86 | 1008.6 |
| 20260506033652 | 77 | 86 | 1.0 | 2.0 | 0.00 | 0.00 | 0.00 | 86 | 1008.5 |
| 20260506033149 | 77 | 62 | 1.0 | 3.0 | 0.00 | 0.00 | 0.00 | 86 | 1008.5 |
| 20260506032646 | 77 | 99 | 0.0 | 2.0 | 0.00 | 0.00 | 0.00 | 86 | 1008.4 |
| 20260506032143 | 77 | 121 | 1.0 | 2.0 | 0.00 | 0.00 | 0.00 | 86 | 1008.3 |
| 20260506031640 | 77 | 55 | 1.0 | 2.0 | 0.00 | 0.00 | 0.00 | 86 | 1008.5 |
| 20260506031136 | 77 | 94 | 1.0 | 2.0 | 0.00 | 0.00 | 0.00 | 86 | 1008.2 |
| 20260506030636 | 77 | 98 | 1.0 | 2.0 | 0.00 | 0.00 | 0.00 | 86 | 1008.1 |
| 20260506030132 | 78 | 59 | 2.0 | 2.0 | 0.00 | 0.00 | 0.00 | 86 | 1008.1 |
| 20260506025629 | 78 | 84 | 2.0 | 2.0 | 0.00 | 0.00 | 0.00 | 85 | 1008.2 |
| 20260506025125 | 78 | 83 | 1.0 | 2.0 | 0.00 | 0.00 | 0.00 | 84 | 1007.9 |
| 20260506024623 | 78 | 178 | 0.0 | 3.0 | 0.00 | 0.00 | 0.00 | 84 | 1007.9 |
| 20260506024118 | 78 | 68 | 1.0 | 4.0 | 0.00 | 0.00 | 0.00 | 84 | 1007.9 |
| 20260506023615 | 78 | 67 | 2.0 | 2.0 | 0.00 | 0.00 | 0.00 | 84 | 1007.6 |
| 20260506023112 | 77 | 92 | 1.0 | 2.0 | 0.00 | 0.00 | 0.00 | 84 | 1007.6 |
| 20260506022610 | 77 | 79 | 0.0 | 1.0 | 0.00 | 0.00 | 0.00 | 84 | 1007.6 |
| 20260506022107 | 78 | 102 | 2.0 | 2.0 | 0.00 | 0.00 | 0.00 | 84 | 1007.3 |
| 20260506021605 | 78 | 93 | 1.0 | 2.0 | 0.00 | 0.00 | 0.00 | 84 | 1007.1 |
| 20260506021101 | 78 | 89 | 2.0 | 2.0 | 0.00 | 0.00 | 0.00 | 83 | 1007.1 |
| 20260506020559 | 78 | 99 | 0.0 | 2.0 | 0.00 | 0.00 | 0.00 | 83 | 1006.9 |
| 20260506020056 | 78 | 102 | 1.0 | 1.0 | 0.00 | 0.00 | 0.00 | 83 | 1007.0 |
| 20260506015554 | 78 | 91 | 1.0 | 1.0 | 0.00 | 0.00 | 0.00 | 82 | 1007.0 |
| 20260506015050 | 78 | 110 | 0.0 | 2.0 | 0.00 | 0.00 | 0.00 | 82 | 1006.8 |
| 20260506014548 | 79 | 80 | 1.0 | 2.0 | 0.00 | 0.00 | 0.00 | 82 | 1006.9 |
| 20260506014043 | 79 | 87 | 1.0 | 2.0 | 0.00 | 0.00 | 0.00 | 82 | 1006.7 |
| 20260506013542 | 79 | 89 | 1.0 | 2.0 | 0.00 | 0.00 | 0.00 | 81 | 1006.8 |
| 20260506013038 | 79 | 91 | 1.0 | 2.0 | 0.00 | 0.00 | 0.00 | 81 | 1006.8 |
| 20260506012534 | 79 | 86 | 1.0 | 2.0 | 0.00 | 0.00 | 0.00 | 81 | 1006.9 |
| 20260506012031 | 80 | 103 | 1.0 | 2.0 | 0.00 | 0.00 | 0.00 | 80 | 1006.6 |
| 20260506011529 | 80 | 87 | 1.0 | 2.0 | 0.00 | 0.00 | 0.00 | 80 | 1006.9 |
| 20260506011025 | 80 | 84 | 1.0 | 2.0 | 0.00 | 0.00 | 0.00 | 79 | 1006.8 |
| 20260506010525 | 80 | 114 | 2.0 | 2.0 | 0.00 | 0.00 | 0.00 | 79 | 1006.9 |
| 20260506010020 | 81 | 89 | 1.0 | 2.0 | 0.00 | 0.00 | 0.00 | 79 | 1006.8 |
| 20260506005518 | 81 | 87 | 1.0 | 2.0 | 0.00 | 0.00 | 0.00 | 78 | 1006.7 |
| 20260506005013 | 81 | 108 | 1.0 | 2.0 | 0.00 | 0.00 | 0.00 | 77 | 1006.8 |
| 20260506004511 | 82 | 67 | 0.0 | 1.0 | 0.00 | 0.00 | 0.00 | 77 | 1006.8 |
| 20260506004008 | 82 | 92 | 1.0 | 2.0 | 0.00 | 0.00 | 0.00 | 76 | 1006.9 |
| 20260506003504 | 82 | 94 | 0.0 | 2.0 | 0.00 | 0.00 | 0.00 | 77 | 1006.8 |
| 20260506003000 | 82 | 71 | 0.0 | 1.0 | 0.00 | 0.00 | 0.00 | 75 | 1006.9 |
| 20260506002456 | 82 | 150 | 0.0 | 2.0 | 0.00 | 0.00 | 0.00 | 73 | 1006.9 |
| 20260506001952 | 82 | 140 | 1.0 | 2.0 | 0.00 | 0.00 | 0.00 | 74 | 1006.9 |
| 20260506001449 | 83 | 61 | 2.0 | 2.0 | 0.00 | 0.00 | 0.00 | 73 | 1006.7 |
| 20260506000946 | 83 | 61 | 1.0 | 2.0 | 0.00 | 0.00 | 0.00 | 74 | 1006.5 |
| 20260506000445 | 83 | 114 | 1.0 | 3.0 | 0.00 | 0.00 | 0.00 | 73 | 1006.7 |
| 20260505235940 | 83 | 115 | 1.0 | 2.0 | 0.00 | 0.00 | 0.00 | 72 | 1006.4 |
| 20260505235438 | 84 | 83 | 1.0 | 2.0 | 0.00 | 0.00 | 0.00 | 72 | 1006.5 |
| 20260505234935 | 84 | 60 | 1.0 | 3.0 | 0.00 | 0.00 | 0.00 | 71 | 1006.5 |
| 20260505234433 | 84 | 96 | 0.0 | 2.0 | 0.00 | 0.00 | 0.00 | 71 | 1006.5 |
| 20260505233929 | 84 | 134 | 0.0 | 2.0 | 0.00 | 0.00 | 0.00 | 70 | 1006.3 |
| 20260505233427 | 84 | 42 | 4.0 | 4.0 | 0.00 | 0.00 | 0.00 | 71 | 1006.4 |
| 20260505232924 | 84 | 72 | 1.0 | 3.0 | 0.00 | 0.00 | 0.00 | 70 | 1006.4 |
| 20260505232422 | 84 | 100 | 2.0 | 4.0 | 0.00 | 0.00 | 0.00 | 69 | 1006.4 |
| 20260505231918 | 84 | 68 | 4.0 | 4.0 | 0.00 | 0.00 | 0.00 | 68 | 1006.3 |
| 20260505231416 | 84 | 99 | 2.0 | 2.0 | 0.00 | 0.00 | 0.00 | 69 | 1006.4 |
| 20260505230914 | 84 | 83 | 2.0 | 3.0 | 0.00 | 0.00 | 0.00 | 68 | 1006.5 |
| 20260505230412 | 84 | 43 | 0.0 | 2.0 | 0.00 | 0.00 | 0.00 | 68 | 1006.3 |
| 20260505225908 | 84 | 121 | 2.0 | 2.0 | 0.00 | 0.00 | 0.00 | 68 | 1006.2 |
| 20260505225405 | 85 | 63 | 2.0 | 2.0 | 0.00 | 0.00 | 0.00 | 69 | 1006.2 |
| 20260505224900 | 85 | 121 | 1.0 | 3.0 | 0.00 | 0.00 | 0.00 | 68 | 1006.3 |
| 20260505224358 | 85 | 202 | 1.0 | 2.0 | 0.00 | 0.00 | 0.00 | 68 | 1006.4 |
| 20260505223854 | 85 | 61 | 3.0 | 3.0 | 0.00 | 0.00 | 0.00 | 68 | 1006.1 |
| 20260505223351 | 85 | 92 | 2.0 | 2.0 | 0.00 | 0.00 | 0.00 | 69 | 1006.3 |
| 20260505222847 | 85 | 190 | 2.0 | 3.0 | 0.00 | 0.00 | 0.00 | 68 | 1006.2 |
| 20260505222344 | 85 | 124 | 1.0 | 3.0 | 0.00 | 0.00 | 0.00 | 68 | 1006.0 |
| 20260505221841 | 85 | 81 | 2.0 | 4.0 | 0.00 | 0.00 | 0.00 | 68 | 1006.2 |
| 20260505221338 | 86 | 67 | 2.0 | 3.0 | 0.00 | 0.00 | 0.00 | 66 | 1006.3 |
| 20260505220835 | 86 | 183 | 1.0 | 4.0 | 0.00 | 0.00 | 0.00 | 66 | 1006.3 |
| 20260505220331 | 86 | 86 | 0.0 | 4.0 | 0.00 | 0.00 | 0.00 | 66 | 1006.2 |
| 20260505215830 | 86 | 24 | 3.0 | 4.0 | 0.00 | 0.00 | 0.00 | 65 | 1006.3 |
| 20260505215327 | 86 | 23 | 4.0 | 6.0 | 0.00 | 0.00 | 0.00 | 65 | 1006.3 |
| 20260505214825 | 85 | 90 | 2.0 | 4.0 | 0.00 | 0.00 | 0.00 | 65 | 1006.7 |
| 20260505214322 | 85 | 102 | 2.0 | 5.0 | 0.00 | 0.00 | 0.00 | 65 | 1006.9 |
| 20260505213819 | 86 | 54 | 2.0 | 3.0 | 0.00 | 0.00 | 0.00 | 65 | 1006.6 |
| 20260505213317 | 85 | 122 | 0.0 | 3.0 | 0.00 | 0.00 | 0.00 | 65 | 1006.7 |
| 20260505212813 | 85 | 175 | 0.0 | 2.0 | 0.00 | 0.00 | 0.00 | 67 | 1007.0 |
| 20260505212310 | 85 | 138 | 0.0 | 2.0 | 0.00 | 0.00 | 0.00 | 66 | 1007.1 |
| 20260505211806 | 86 | 76 | 1.0 | 3.0 | 0.00 | 0.00 | 0.00 | 66 | 1006.9 |
| 20260505211304 | 86 | 15 | 0.0 | 5.0 | 0.00 | 0.00 | 0.00 | 65 | 1006.7 |
| 20260505210800 | 86 | 63 | 0.0 | 4.0 | 0.00 | 0.00 | 0.00 | 65 | 1006.9 |
| 20260505210257 | 86 | 108 | 0.0 | 4.0 | 0.00 | 0.00 | 0.00 | 64 | 1007.2 |
| 20260505205754 | 87 | 150 | 1.0 | 3.0 | 0.00 | 0.00 | 0.00 | 64 | 1006.9 |
| 20260505205253 | 87 | 131 | 2.0 | 3.0 | 0.00 | 0.00 | 0.00 | 63 | 1007.0 |
| 20260505204749 | 88 | 93 | 1.0 | 4.0 | 0.00 | 0.00 | 0.00 | 63 | 1007.1 |
| 20260505204247 | 88 | 169 | 0.0 | 3.0 | 0.00 | 0.00 | 0.00 | 62 | 1007.1 |
| 20260505203744 | 87 | 76 | 0.0 | 6.0 | 0.00 | 0.00 | 0.00 | 64 | 1007.1 |
| 20260505203241 | 86 | 87 | 1.0 | 3.0 | 0.00 | 0.00 | 0.00 | 65 | 1007.4 |
| 20260505202736 | 86 | 116 | 2.0 | 2.0 | 0.00 | 0.00 | 0.00 | 64 | 1007.5 |
| 20260505202233 | 87 | 59 | 3.0 | 4.0 | 0.00 | 0.00 | 0.00 | 64 | 1007.6 |
| 20260505201729 | 87 | 177 | 2.0 | 3.0 | 0.00 | 0.00 | 0.00 | 64 | 1007.8 |
| 20260505201227 | 87 | 76 | 1.0 | 4.0 | 0.00 | 0.00 | 0.00 | 64 | 1007.9 |
| 20260505200725 | 86 | 58 | 0.0 | 3.0 | 0.00 | 0.00 | 0.00 | 65 | 1007.9 |
| 20260505200222 | 85 | 98 | 1.0 | 4.0 | 0.00 | 0.00 | 0.00 | 66 | 1008.0 |
| 20260505195717 | 85 | 225 | 1.0 | 4.0 | 0.00 | 0.00 | 0.00 | 67 | 1007.9 |